Wetterdaten: Sonntag, 17.01.2010
Datum Zeit Temp. A. Feuchte A. Luftdruck Regen Wind Richtung Richtung Sonnenschein UV Solar Windben
17.01.2010 00:00 0,0 C 84 % 1009,4 hPa 0,0 mm 4,8 km/h (1 Bft) O-SO 112 0 min 0 UV-I 0 W/m 14,5 km/h (3 Bft)
17.01.2010 00:10 0,1 C 85 % 1009,3 hPa 0,0 mm 6,4 km/h (2 Bft) O-SO 112 0 min 0 UV-I 0 W/m 19,3 km/h (3 Bft)
17.01.2010 00:20 0,2 C 86 % 1009,0 hPa 0,0 mm 6,4 km/h (2 Bft) O-SO 112 0 min 0 UV-I 0 W/m 17,7 km/h (3 Bft)
17.01.2010 00:30 0,2 C 86 % 1008,9 hPa 0,0 mm 6,4 km/h (2 Bft) O-SO 112 0 min 0 UV-I 0 W/m 19,3 km/h (3 Bft)
17.01.2010 00:40 0,2 C 87 % 1008,6 hPa 0,0 mm 4,8 km/h (1 Bft) O 90 0 min 0 UV-I 0 W/m 14,5 km/h (3 Bft)
17.01.2010 00:50 0,3 C 87 % 1008,4 hPa 0,0 mm 4,8 km/h (1 Bft) O-SO 112 0 min 0 UV-I 0 W/m 11,3 km/h (2 Bft)
17.01.2010 01:00 0,3 C 87 % 1008,3 hPa 0,3 mm 6,4 km/h (2 Bft) O-SO 112 0 min 0 UV-I 0 W/m 14,5 km/h (3 Bft)
17.01.2010 01:10 0,3 C 88 % 1008,3 hPa 0,0 mm 4,8 km/h (1 Bft) O-SO 112 0 min 0 UV-I 0 W/m 19,3 km/h (3 Bft)
17.01.2010 01:20 0,3 C 88 % 1008,3 hPa 0,0 mm 4,8 km/h (1 Bft) SO 135 0 min 0 UV-I 0 W/m 16,1 km/h (3 Bft)
17.01.2010 01:30 0,3 C 88 % 1008,2 hPa 0,0 mm 6,4 km/h (2 Bft) O-SO 112 0 min 0 UV-I 0 W/m 20,9 km/h (4 Bft)
17.01.2010 01:40 0,2 C 88 % 1008,1 hPa 0,3 mm 6,4 km/h (2 Bft) O-SO 112 0 min 0 UV-I 0 W/m 17,7 km/h (3 Bft)
17.01.2010 01:50 0,2 C 88 % 1008,1 hPa 0,0 mm 6,4 km/h (2 Bft) O-SO 112 0 min 0 UV-I 0 W/m 19,3 km/h (3 Bft)
17.01.2010 02:00 0,1 C 88 % 1008,1 hPa 0,0 mm 4,8 km/h (1 Bft) SO 135 0 min 0 UV-I 0 W/m 17,7 km/h (3 Bft)
17.01.2010 02:10 0,1 C 88 % 1008,0 hPa 0,0 mm 4,8 km/h (1 Bft) SO 135 0 min 0 UV-I 0 W/m 14,5 km/h (3 Bft)
17.01.2010 02:20 0,1 C 89 % 1008,1 hPa 0,0 mm 3,2 km/h (1 Bft) O-SO 112 0 min 0 UV-I 0 W/m 17,7 km/h (3 Bft)
17.01.2010 02:30 0,1 C 89 % 1008,1 hPa 0,3 mm 3,2 km/h (1 Bft) S-SO 157 0 min 0 UV-I 0 W/m 17,7 km/h (3 Bft)
17.01.2010 02:40 0,1 C 88 % 1008,2 hPa 0,0 mm 1,6 km/h (1 Bft) S-SO 157 0 min 0 UV-I 0 W/m 8,0 km/h (2 Bft)
17.01.2010 02:50 0,1 C 88 % 1008,1 hPa 0,0 mm 3,2 km/h (1 Bft) SO 135 0 min 0 UV-I 0 W/m 11,3 km/h (2 Bft)
17.01.2010 03:00 0,1 C 88 % 1008,0 hPa 0,0 mm 1,6 km/h (1 Bft) SO 135 0 min 0 UV-I 0 W/m 8,0 km/h (2 Bft)
17.01.2010 03:10 0,2 C 89 % 1007,9 hPa 0,0 mm 1,6 km/h (1 Bft) SO 135 0 min 0 UV-I 0 W/m 6,4 km/h (2 Bft)
17.01.2010 03:20 0,2 C 89 % 1007,9 hPa 0,0 mm 1,6 km/h (1 Bft) O-SO 112 0 min 0 UV-I 0 W/m 8,0 km/h (2 Bft)
17.01.2010 03:30 0,2 C 89 % 1007,7 hPa 0,0 mm 1,6 km/h (1 Bft) SO 135 0 min 0 UV-I 0 W/m 6,4 km/h (2 Bft)
17.01.2010 03:40 0,3 C 89 % 1007,7 hPa 0,0 mm 3,2 km/h (1 Bft) O-SO 112 0 min 0 UV-I 0 W/m 9,7 km/h (2 Bft)
17.01.2010 03:50 0,3 C 89 % 1007,6 hPa 0,0 mm 1,6 km/h (1 Bft) O-SO 112 0 min 0 UV-I 0 W/m 8,0 km/h (2 Bft)
17.01.2010 04:00 0,3 C 89 % 1007,5 hPa 0,0 mm 1,6 km/h (1 Bft) O-SO 112 0 min 0 UV-I 0 W/m 6,4 km/h (2 Bft)
17.01.2010 04:10 0,3 C 89 % 1007,5 hPa 0,3 mm 1,6 km/h (1 Bft) S 180 0 min 0 UV-I 0 W/m 8,0 km/h (2 Bft)
17.01.2010 04:20 0,4 C 89 % 1007,5 hPa 0,0 mm 1,6 km/h (1 Bft) SO 135 0 min 0 UV-I 0 W/m 6,4 km/h (2 Bft)
17.01.2010 04:30 0,4 C 90 % 1007,5 hPa 0,0 mm 1,6 km/h (1 Bft) S-SO 157 0 min 0 UV-I 0 W/m 4,8 km/h (1 Bft)
17.01.2010 04:40 0,4 C 90 % 1007,5 hPa 0,0 mm 3,2 km/h (1 Bft) SO 135 0 min 0 UV-I 0 W/m 6,4 km/h (2 Bft)
17.01.2010 04:50 0,5 C 90 % 1007,4 hPa 0,0 mm 1,6 km/h (1 Bft) O-SO 112 0 min 0 UV-I 0 W/m 9,7 km/h (2 Bft)
17.01.2010 05:00 0,5 C 90 % 1007,4 hPa 0,3 mm 1,6 km/h (1 Bft) O-SO 112 0 min 0 UV-I 0 W/m 9,7 km/h (2 Bft)
17.01.2010 05:10 0,6 C 90 % 1007,4 hPa 0,3 mm 0,0 km/h (0 Bft) O-SO 112 0 min 0 UV-I 0 W/m 3,2 km/h (1 Bft)
17.01.2010 05:20 0,6 C 90 % 1007,3 hPa 0,0 mm 1,6 km/h (1 Bft) S-SO 157 0 min 0 UV-I 0 W/m 4,8 km/h (1 Bft)
17.01.2010 05:30 0,7 C 90 % 1007,3 hPa 0,0 mm 1,6 km/h (1 Bft) O-SO 112 0 min 0 UV-I 0 W/m 4,8 km/h (1 Bft)
17.01.2010 05:40 0,7 C 90 % 1007,2 hPa 0,0 mm 0,0 km/h (0 Bft) S-SO 157 0 min 0 UV-I 0 W/m 3,2 km/h (1 Bft)
17.01.2010 05:50 0,7 C 90 % 1007,2 hPa 0,3 mm 1,6 km/h (1 Bft) S 180 0 min 0 UV-I 0 W/m 6,4 km/h (2 Bft)
17.01.2010 06:00 0,7 C 91 % 1007,1 hPa 0,0 mm 1,6 km/h (1 Bft) SO 135 0 min 0 UV-I 0 W/m 6,4 km/h (2 Bft)
17.01.2010 06:10 0,7 C 91 % 1007,1 hPa 0,0 mm 1,6 km/h (1 Bft) SO 135 0 min 0 UV-I 0 W/m 6,4 km/h (2 Bft)
17.01.2010 06:20 0,8 C 91 % 1007,0 hPa 0,0 mm 1,6 km/h (1 Bft) SO 135 0 min 0 UV-I 0 W/m 6,4 km/h (2 Bft)
17.01.2010 06:30 0,8 C 91 % 1007,1 hPa 0,0 mm 1,6 km/h (1 Bft) SO 135 0 min 0 UV-I 0 W/m 9,7 km/h (2 Bft)
17.01.2010 06:40 0,8 C 91 % 1007,1 hPa 0,0 mm 1,6 km/h (1 Bft) S 180 0 min 0 UV-I 0 W/m 8,0 km/h (2 Bft)
17.01.2010 06:50 0,8 C 91 % 1007,1 hPa 0,0 mm 1,6 km/h (1 Bft) S-SO 157 0 min 0 UV-I 0 W/m 4,8 km/h (1 Bft)
17.01.2010 07:00 0,9 C 91 % 1007,1 hPa 0,0 mm 1,6 km/h (1 Bft) SO 135 0 min 0 UV-I 0 W/m 6,4 km/h (2 Bft)
17.01.2010 07:10 0,9 C 91 % 1007,2 hPa 0,3 mm 1,6 km/h (1 Bft) S-SW 202 0 min 0 UV-I 0 W/m 8,0 km/h (2 Bft)
17.01.2010 07:20 0,9 C 91 % 1007,2 hPa 0,0 mm 0,0 km/h (0 Bft) S-SO 157 0 min 0 UV-I 0 W/m 4,8 km/h (1 Bft)
17.01.2010 07:30 1,0 C 91 % 1007,1 hPa 0,0 mm 1,6 km/h (1 Bft) S-SO 157 0 min 0 UV-I 0 W/m 6,4 km/h (2 Bft)
17.01.2010 07:40 1,1 C 91 % 1007,1 hPa 0,0 mm 1,6 km/h (1 Bft) S 180 0 min 0 UV-I 0 W/m 6,4 km/h (2 Bft)
17.01.2010 07:50 1,1 C 91 % 1007,1 hPa 0,0 mm 1,6 km/h (1 Bft) S-SO 157 0 min 0 UV-I 0 W/m 8,0 km/h (2 Bft)
17.01.2010 08:00 1,2 C 91 % 1007,3 hPa 0,3 mm 2,2 km/h (1 Bft) SO 130 0 min 0 UV-I 0 W/m 6,4 km/h (2 Bft)
17.01.2010 08:10 1,2 C 91 % 1007,4 hPa 0,0 mm 0,0 km/h (0 Bft) S-SO 157 0 min 0 UV-I 0 W/m 3,2 km/h (1 Bft)
17.01.2010 08:20 1,2 C 91 % 1007,4 hPa 0,0 mm 0,0 km/h (0 Bft) S-SO 157 0 min 0 UV-I 0 W/m 3,2 km/h (1 Bft)
17.01.2010 08:30 1,3 C 91 % 1007,5 hPa 0,0 mm 0,0 km/h (0 Bft) S-SO 157 0 min 0 UV-I 0 W/m 3,2 km/h (1 Bft)
17.01.2010 08:40 1,3 C 92 % 1007,6 hPa 0,3 mm 0,0 km/h (0 Bft) S-SO 157 0 min 0 UV-I 0 W/m 4,8 km/h (1 Bft)
17.01.2010 08:50 1,3 C 92 % 1007,7 hPa 0,0 mm 0,0 km/h (0 Bft) SO 135 0 min 0 UV-I 0 W/m 1,6 km/h (1 Bft)
17.01.2010 09:00 1,3 C 92 % 1007,8 hPa 0,0 mm 0,0 km/h (0 Bft) N 0 0 min 0 UV-I 0 W/m 0,0 km/h (0 Bft)
17.01.2010 09:10 1,3 C 92 % 1007,8 hPa 0,3 mm 0,0 km/h (0 Bft) SO 135 0 min 0 UV-I 5 W/m 1,6 km/h (1 Bft)
17.01.2010 09:20 1,3 C 92 % 1007,9 hPa 0,0 mm 0,0 km/h (0 Bft) N 0 0 min 0 UV-I 12 W/m 0,0 km/h (0 Bft)
17.01.2010 09:30 1,3 C 92 % 1007,9 hPa 0,0 mm 0,0 km/h (0 Bft) N 0 0 min 0 UV-I 21 W/m 0,0 km/h (0 Bft)
17.01.2010 09:40 1,3 C 92 % 1008,1 hPa 0,0 mm 0,0 km/h (0 Bft) N 0 0 min 0 UV-I 21 W/m 0,0 km/h (0 Bft)
17.01.2010 09:50 1,3 C 92 % 1008,3 hPa 0,3 mm 0,0 km/h (0 Bft) SO 135 0 min 0 UV-I 23 W/m 1,6 km/h (1 Bft)
17.01.2010 10:00 1,4 C 92 % 1008,3 hPa 0,0 mm 0,0 km/h (0 Bft) N 0 0 min 0 UV-I 23 W/m 0,0 km/h (0 Bft)
17.01.2010 10:10 1,5 C 92 % 1008,5 hPa 0,0 mm 0,0 km/h (0 Bft) N 0 0 min 0 UV-I 25 W/m 0,0 km/h (0 Bft)
17.01.2010 10:20 1,6 C 92 % 1008,6 hPa 0,0 mm 0,0 km/h (0 Bft) N 0 0 min 0 UV-I 28 W/m 0,0 km/h (0 Bft)
17.01.2010 10:30 1,7 C 92 % 1008,7 hPa 0,0 mm 0,0 km/h (0 Bft) N 0 0 min 0 UV-I 30 W/m 0,0 km/h (0 Bft)
17.01.2010 10:40 1,8 C 92 % 1008,9 hPa 0,3 mm 0,0 km/h (0 Bft) SO 135 0 min 0 UV-I 35 W/m 1,6 km/h (1 Bft)
17.01.2010 10:50 1,8 C 92 % 1009,0 hPa 0,0 mm 0,0 km/h (0 Bft) SO 135 0 min 0 UV-I 35 W/m 1,6 km/h (1 Bft)
17.01.2010 11:00 1,9 C 92 % 1009,2 hPa 0,0 mm 0,0 km/h (0 Bft) SO 135 0 min 0 UV-I 33 W/m 1,6 km/h (1 Bft)
17.01.2010 11:10 2,1 C 92 % 1009,3 hPa 0,3 mm 0,0 km/h (0 Bft) N 0 0 min 0 UV-I 25 W/m 0,0 km/h (0 Bft)
17.01.2010 11:20 2,1 C 92 % 1009,5 hPa 0,0 mm 0,0 km/h (0 Bft) N 0 0 min 0 UV-I 32 W/m 0,0 km/h (0 Bft)
17.01.2010 11:30 2,2 C 92 % 1009,6 hPa 0,5 mm 0,0 km/h (0 Bft) N 0 0 min 0 UV-I 35 W/m 0,0 km/h (0 Bft)
17.01.2010 11:40 2,2 C 92 % 1009,6 hPa 0,3 mm 0,0 km/h (0 Bft) N 0 0 min 0 UV-I 33 W/m 0,0 km/h (0 Bft)
17.01.2010 11:50 2,3 C 92 % 1009,5 hPa 0,0 mm 0,0 km/h (0 Bft) N 0 0 min 0 UV-I 42 W/m 0,0 km/h (0 Bft)
17.01.2010 12:00 2,3 C 92 % 1009,5 hPa 0,0 mm 0,0 km/h (0 Bft) N 0 0 min 0 UV-I 49 W/m 0,0 km/h (0 Bft)
17.01.2010 12:10 2,4 C 92 % 1009,7 hPa 0,3 mm 0,0 km/h (0 Bft) N 0 0 min 0 UV-I 47 W/m 0,0 km/h (0 Bft)
17.01.2010 12:20 2,5 C 92 % 1009,9 hPa 0,0 mm 0,0 km/h (0 Bft) S-SO 157 0 min 0 UV-I 44 W/m 3,2 km/h (1 Bft)
17.01.2010 12:30 2,6 C 92 % 1009,9 hPa 0,0 mm 0,0 km/h (0 Bft) N 0 0 min 0 UV-I 40 W/m 0,0 km/h (0 Bft)
17.01.2010 12:40 2,7 C 92 % 1009,9 hPa 0,0 mm 0,0 km/h (0 Bft) N 0 0 min 0 UV-I 44 W/m 0,0 km/h (0 Bft)
17.01.2010 12:50 2,8 C 92 % 1010,0 hPa 0,3 mm 0,0 km/h (0 Bft) SW 225 0 min 0 UV-I 40 W/m 3,2 km/h (1 Bft)
17.01.2010 13:00 2,9 C 92 % 1010,1 hPa 0,0 mm 0,0 km/h (0 Bft) SW 225 0 min 0 UV-I 40 W/m 3,2 km/h (1 Bft)
17.01.2010 13:10 3,0 C 92 % 1010,1 hPa 0,3 mm 1,6 km/h (1 Bft) W-SW 247 0 min 0 UV-I 28 W/m 4,8 km/h (1 Bft)
17.01.2010 13:20 3,1 C 92 % 1010,2 hPa 0,0 mm 1,6 km/h (1 Bft) W-SW 247 0 min 0 UV-I 33 W/m 4,8 km/h (1 Bft)
17.01.2010 13:30 3,2 C 92 % 1010,3 hPa 0,3 mm 3,2 km/h (1 Bft) W-SW 247 0 min 0 UV-I 39 W/m 8,0 km/h (2 Bft)
17.01.2010 13:40 3,3 C 92 % 1010,4 hPa 0,0 mm 3,2 km/h (1 Bft) W-SW 247 0 min 0 UV-I 39 W/m 9,7 km/h (2 Bft)
17.01.2010 13:50 3,3 C 92 % 1010,5 hPa 0,3 mm 3,2 km/h (1 Bft) W-SW 247 0 min 0 UV-I 35 W/m 9,7 km/h (2 Bft)
17.01.2010 14:00 3,4 C 92 % 1010,6 hPa 0,3 mm 3,2 km/h (1 Bft) W-SW 247 0 min 0 UV-I 33 W/m 11,3 km/h (2 Bft)
17.01.2010 14:10 3,4 C 92 % 1010,7 hPa 0,0 mm 3,2 km/h (1 Bft) W-SW 247 0 min 0 UV-I 26 W/m 16,1 km/h (3 Bft)
17.01.2010 14:20 3,4 C 92 % 1010,8 hPa 0,3 mm 3,2 km/h (1 Bft) W 270 0 min 0 UV-I 25 W/m 11,3 km/h (2 Bft)
17.01.2010 14:30 3,4 C 92 % 1011,0 hPa 0,0 mm 3,2 km/h (1 Bft) W-SW 247 0 min 0 UV-I 23 W/m 9,7 km/h (2 Bft)
17.01.2010 14:40 3,4 C 92 % 1011,2 hPa 0,3 mm 3,2 km/h (1 Bft) W-SW 247 0 min 0 UV-I 21 W/m 9,7 km/h (2 Bft)
17.01.2010 14:50 3,4 C 92 % 1011,6 hPa 0,0 mm 4,8 km/h (1 Bft) W-SW 247 0 min 0 UV-I 25 W/m 9,7 km/h (2 Bft)
17.01.2010 15:00 3,4 C 93 % 1011,8 hPa 0,3 mm 4,8 km/h (1 Bft) W-SW 247 0 min 0 UV-I 25 W/m 11,3 km/h (2 Bft)
17.01.2010 15:10 3,4 C 93 % 1012,1 hPa 0,3 mm 6,4 km/h (2 Bft) W-SW 247 0 min 0 UV-I 19 W/m 14,5 km/h (3 Bft)
17.01.2010 15:20 3,3 C 93 % 1012,3 hPa 0,0 mm 6,4 km/h (2 Bft) W-SW 247 0 min 0 UV-I 11 W/m 17,7 km/h (3 Bft)
17.01.2010 15:30 3,3 C 93 % 1012,5 hPa 0,3 mm 6,4 km/h (2 Bft) W-SW 247 0 min 0 UV-I 11 W/m 17,7 km/h (3 Bft)
17.01.2010 15:40 3,2 C 92 % 1012,8 hPa 0,0 mm 8,0 km/h (2 Bft) W-SW 247 0 min 0 UV-I 7 W/m 20,9 km/h (4 Bft)
17.01.2010 15:50 3,2 C 92 % 1013,0 hPa 0,0 mm 6,4 km/h (2 Bft) W-SW 247 0 min 0 UV-I 5 W/m 17,7 km/h (3 Bft)
17.01.2010 16:00 3,1 C 93 % 1013,2 hPa 0,3 mm 4,8 km/h (1 Bft) W 270 0 min 0 UV-I 5 W/m 16,1 km/h (3 Bft)
17.01.2010 16:10 3,0 C 93 % 1013,4 hPa 0,0 mm 6,4 km/h (2 Bft) W 270 0 min 0 UV-I 0 W/m 22,5 km/h (4 Bft)
17.01.2010 16:20 2,9 C 93 % 1013,6 hPa 0,3 mm 4,8 km/h (1 Bft) W 270 0 min 0 UV-I 0 W/m 16,1 km/h (3 Bft)
17.01.2010 16:30 2,9 C 93 % 1013,7 hPa 0,0 mm 4,8 km/h (1 Bft) W-SW 247 0 min 0 UV-I 0 W/m 14,5 km/h (3 Bft)
17.01.2010 16:40 2,9 C 93 % 1013,8 hPa 0,0 mm 3,2 km/h (1 Bft) W 270 0 min 0 UV-I 0 W/m 14,5 km/h (3 Bft)
17.01.2010 16:50 2,9 C 93 % 1014,1 hPa 0,0 mm 3,2 km/h (1 Bft) W 270 0 min 0 UV-I 0 W/m 16,1 km/h (3 Bft)
17.01.2010 17:00 2,9 C 93 % 1014,3 hPa 0,3 mm 1,5 km/h (1 Bft) W-SW 246 0 min 0 UV-I 0 W/m 6,4 km/h (2 Bft)
17.01.2010 17:10 2,9 C 93 % 1014,5 hPa 0,3 mm 0,9 km/h (0 Bft) W 259 0 min 0 UV-I 0 W/m 4,8 km/h (1 Bft)
17.01.2010 17:20 2,9 C 93 % 1014,7 hPa 0,0 mm 1,7 km/h (1 Bft) W-SW 238 0 min 0 UV-I 0 W/m 6,4 km/h (2 Bft)
17.01.2010 17:30 2,9 C 93 % 1014,7 hPa 0,0 mm 3,3 km/h (1 Bft) SW 226 0 min 0 UV-I 0 W/m 8,0 km/h (2 Bft)
17.01.2010 17:40 3,0 C 93 % 1014,8 hPa 0,0 mm 6,4 km/h (2 Bft) W-SW 247 0 min 0 UV-I 0 W/m 17,7 km/h (3 Bft)
17.01.2010 17:50 3,3 C 93 % 1015,0 hPa 0,0 mm 5,0 km/h (1 Bft) W 265 0 min 0 UV-I 0 W/m 11,3 km/h (2 Bft)
17.01.2010 18:00 3,4 C 93 % 1015,1 hPa 0,3 mm 6,4 km/h (2 Bft) W 270 0 min 0 UV-I 0 W/m 16,1 km/h (3 Bft)
17.01.2010 18:10 3,6 C 93 % 1015,1 hPa 0,3 mm 6,4 km/h (2 Bft) W 270 0 min 0 UV-I 0 W/m 17,7 km/h (3 Bft)
17.01.2010 18:20 3,7 C 93 % 1015,3 hPa 0,0 mm 11,3 km/h (2 Bft) W 270 0 min 0 UV-I 0 W/m 24,1 km/h (4 Bft)
17.01.2010 18:30 3,7 C 93 % 1015,5 hPa 0,0 mm 8,0 km/h (2 Bft) W-SW 247 0 min 0 UV-I 0 W/m 20,9 km/h (4 Bft)
17.01.2010 18:40 3,7 C 93 % 1015,6 hPa 0,0 mm 8,0 km/h (2 Bft) W 270 0 min 0 UV-I 0 W/m 22,5 km/h (4 Bft)
17.01.2010 18:50 3,6 C 93 % 1015,8 hPa 0,0 mm 9,7 km/h (2 Bft) W 270 0 min 0 UV-I 0 W/m 22,5 km/h (4 Bft)
17.01.2010 19:00 3,6 C 93 % 1016,0 hPa 0,0 mm 9,7 km/h (2 Bft) W 270 0 min 0 UV-I 0 W/m 24,1 km/h (4 Bft)
17.01.2010 19:10 3,5 C 93 % 1016,3 hPa 0,0 mm 8,0 km/h (2 Bft) W 262 0 min 0 UV-I 0 W/m 16,1 km/h (3 Bft)
17.01.2010 19:20 3,5 C 93 % 1016,5 hPa 0,0 mm 7,6 km/h (2 Bft) W 273 0 min 0 UV-I 0 W/m 25,7 km/h (4 Bft)
17.01.2010 19:30 3,4 C 93 % 1016,8 hPa 0,0 mm 7,4 km/h (2 Bft) W-SW 258 0 min 0 UV-I 0 W/m 19,3 km/h (3 Bft)
17.01.2010 19:40 3,4 C 93 % 1016,9 hPa 0,0 mm 4,7 km/h (1 Bft) W 268 0 min 0 UV-I 0 W/m 11,3 km/h (2 Bft)
17.01.2010 19:50 3,4 C 93 % 1017,1 hPa 0,0 mm 5,1 km/h (1 Bft) SW 227 0 min 0 UV-I 0 W/m 17,7 km/h (3 Bft)
17.01.2010 20:00 3,3 C 93 % 1017,2 hPa 0,0 mm 5,9 km/h (2 Bft) W-NW 296 0 min 0 UV-I 0 W/m 17,7 km/h (3 Bft)
17.01.2010 20:10 3,4 C 93 % 1017,3 hPa 0,0 mm 6,3 km/h (2 Bft) W-SW 241 0 min 0 UV-I 0 W/m 22,5 km/h (4 Bft)
17.01.2010 20:20 3,4 C 93 % 1017,4 hPa 0,0 mm 5,3 km/h (1 Bft) W 281 0 min 0 UV-I 0 W/m 14,5 km/h (3 Bft)
17.01.2010 20:30 3,4 C 93 % 1017,5 hPa 0,0 mm 8,5 km/h (2 Bft) S-SO 167 0 min 0 UV-I 0 W/m 19,3 km/h (3 Bft)
17.01.2010 20:40 3,6 C 93 % 1017,7 hPa 0,0 mm 8,7 km/h (2 Bft) W-SW 250 0 min 0 UV-I 0 W/m 27,4 km/h (4 Bft)
17.01.2010 20:50 3,5 C 93 % 1017,8 hPa 0,0 mm 7,1 km/h (2 Bft) W-SW 240 0 min 0 UV-I 0 W/m 19,3 km/h (3 Bft)
17.01.2010 21:00 3,5 C 93 % 1017,9 hPa 0,0 mm 4,6 km/h (1 Bft) W 259 0 min 0 UV-I 0 W/m 17,7 km/h (3 Bft)
17.01.2010 21:10 3,4 C 93 % 1018,1 hPa 0,0 mm 5,3 km/h (1 Bft) W 275 0 min 0 UV-I 0 W/m 16,1 km/h (3 Bft)
17.01.2010 21:20 3,4 C 93 % 1018,2 hPa 0,0 mm 5,2 km/h (1 Bft) W-SW 240 0 min 0 UV-I 0 W/m 16,1 km/h (3 Bft)
17.01.2010 21:30 3,4 C 93 % 1018,3 hPa 0,0 mm 5,1 km/h (1 Bft) W-SW 238 0 min 0 UV-I 0 W/m 11,3 km/h (2 Bft)
17.01.2010 21:40 3,4 C 93 % 1018,4 hPa 0,0 mm 3,5 km/h (1 Bft) W 274 0 min 0 UV-I 0 W/m 11,3 km/h (2 Bft)
17.01.2010 21:50 3,3 C 93 % 1018,6 hPa 0,0 mm 2,8 km/h (1 Bft) W 268 0 min 0 UV-I 0 W/m 11,3 km/h (2 Bft)
17.01.2010 22:00 3,3 C 93 % 1018,6 hPa 0,0 mm 4,1 km/h (1 Bft) SW 233 0 min 0 UV-I 0 W/m 14,5 km/h (3 Bft)
17.01.2010 22:10 3,3 C 93 % 1018,7 hPa 0,0 mm 4,9 km/h (1 Bft) W 277 0 min 0 UV-I 0 W/m 11,3 km/h (2 Bft)
17.01.2010 22:20 3,3 C 93 % 1018,8 hPa 0,0 mm 4,1 km/h (1 Bft) SW 222 0 min 0 UV-I 0 W/m 9,7 km/h (2 Bft)
17.01.2010 22:30 3,3 C 93 % 1018,9 hPa 0,0 mm 2,5 km/h (1 Bft) W-SW 238 0 min 0 UV-I 0 W/m 9,7 km/h (2 Bft)
17.01.2010 22:40 3,3 C 93 % 1019,0 hPa 0,0 mm 4,2 km/h (1 Bft) W 262 0 min 0 UV-I 0 W/m 9,7 km/h (2 Bft)
17.01.2010 22:50 3,3 C 93 % 1019,1 hPa 0,0 mm 4,1 km/h (1 Bft) W-SW 244 0 min 0 UV-I 0 W/m 11,3 km/h (2 Bft)
17.01.2010 23:00 3,2 C 93 % 1019,2 hPa 0,0 mm 3,3 km/h (1 Bft) W-SW 251 0 min 0 UV-I 0 W/m 9,7 km/h (2 Bft)
17.01.2010 23:10 3,2 C 93 % 1019,4 hPa 0,0 mm 2,3 km/h (1 Bft) SW 236 0 min 0 UV-I 0 W/m 6,4 km/h (2 Bft)
17.01.2010 23:20 3,2 C 93 % 1019,4 hPa 0,0 mm 1,1 km/h (1 Bft) SW 216 0 min 0 UV-I 0 W/m 6,4 km/h (2 Bft)
17.01.2010 23:30 3,2 C 93 % 1019,5 hPa 0,0 mm 0,8 km/h (0 Bft) SW 229 0 min 0 UV-I 0 W/m 4,8 km/h (1 Bft)
17.01.2010 23:40 3,1 C 93 % 1019,5 hPa 0,0 mm 0,0 km/h (0 Bft) SW 225 0 min 0 UV-I 0 W/m 6,4 km/h (2 Bft)
17.01.2010 23:50 3,1 C 93 % 1019,6 hPa 0,0 mm 3,2 km/h (1 Bft) W-SW 247 0 min 0 UV-I 0 W/m 8,0 km/h (2 Bft)
_ Min-Zeit 02:30 00:00 06:20 - 05:10 - - - - - 09:00
Minimum _ 0,0 C 84 % 1007,0 hPa - 0,0 km/h (0 Bft) - - - - - 0,0 km/h (0 Bft)
_ Max-Zeit 18:20 15:00 23:50 11:30 18:20 - - 00:00 00:00 12:00 20:40
Maximum _ 3,7 C 93 % 1019,6 hPa 0,5 mm 11,3 km/h
W (2 Bft)
- - 0 min 0 UV-I 49 W/m 27,4 km/h
W (4 Bft)
Durchschnitt _ 2,0 C 91 % 1011,4 hPa #8,6 mm 3,1 km/h (1 Bft) W-SW - #0 min. 0 UV-I 28 W/m 10,0 km/h (2 Bft)